EGSS

London Stansted Airport

Airport
ICAO code
EGSS
IATA Code
STN
Summary
ICAO Region
EUR
ICAO Territory
Location

Stansted, England, United Kingdom, Essex

Serving
London
Elevation
348 ft
Coordinates
51° 53' 22" N , 0° 15' 41" E
KCC
Cfb
Metar
Observation
EGSS 140620Z AUTO 04004KT 9999 NCD 21/12 Q1009
Station
Stansted Airport
Date/Time
2022-08-14 06:20:00
Wind direction
40°
Wind speed
04 kts
Lowest cloud amount
no clouds detected
Temperature
21°C
Dew point
12°C
Humidity
56%
QNH
1009 hPa
Weather condition
n/a

London Stansted Airport is an international airport located at Stansted Mountfitchet in the district of Uttlesford in Essex, 42nm northeast of Central London.

Climatology

Temperate Marine climate/Oceanic climate (Köppen climate classification Cfb).

Runways

Designator Length Width Surface Rops
5/23 3048 46 ASP Yes/Yes

SKYbrary Partners:

Safety knowledge contributed by: